Location: Blairvadach
(56.2780°N, 6.9720°W)
Time: 12:54:05
(UTC+00:00)

Envisat - Pass Details

Date: 15 November 2019
Orbit: 764 x 766 km, 98.1° (Epoch: 07 December)

Event Time Altitude Azimuth Distance (km) Brightness Sun altitude
Rises 06:44:25 0° 19° (NNE) 3,247 6.3 -10.9°
Reaches altitude 10° 06:46:56 10° 29° (NNE) 2,316 5.6 -10.6°
Maximum altitude 06:51:35 34° 94° (E) 1,237 4.9 -10.0°
Drops below altitude 10° 06:56:12 10° 160° (SSE) 2,300 6.1 -9.4°
Sets 06:58:41 0° 169° (S) 3,221 6.7 -9.0°
